N62LC KJCT-KCNM

Flight info

Callsign N62LC
Flight time N/A
Altitude 8000
Route DCT COLKO DTC INK
Aircraft A1/M-SGCB2/S

Departure

Time 2026-05-05 16:27
Airport Kimble County Airport (KJCT)

Arrival

Time N/A
Airport Cavern City Air Terminal (KCNM)
Time Latitude Longitude Altitude Speed Heading
2026-05-05 16:22 30.50826 -99.76554 1726 ft 0 kts 90°
2026-05-05 16:25 30.50826 -99.76547 1726 ft 3 kts 89°
2026-05-05 16:25 30.50737 -99.76521 1723 ft 16 kts 178°
2026-05-05 16:25 30.50608 -99.76524 1717 ft 21 kts 182°
2026-05-05 16:26 30.50404 -99.76480 1709 ft 10 kts 89°
2026-05-05 16:26 30.50873 -99.76433 1729 ft 94 kts
2026-05-05 16:27 30.51732 -99.76427 1850 ft 149 kts
2026-05-05 16:27 30.52888 -99.76338 2492 ft 182 kts
2026-05-05 16:27 30.54235 -99.76241 3071 ft 206 kts 354°
2026-05-05 16:27 30.55603 -99.76836 3528 ft 219 kts 318°
2026-05-05 16:28 30.56502 -99.78233 4017 ft 216 kts 286°
2026-05-05 16:28 30.56713 -99.79946 4492 ft 213 kts 270°
2026-05-05 16:28 30.56713 -99.81624 4942 ft 205 kts 268°
2026-05-05 16:28 30.56657 -99.83254 5381 ft 201 kts 267°
2026-05-05 16:29 30.56604 -99.84857 5849 ft 200 kts 272°
2026-05-05 16:29 30.56790 -99.86472 6308 ft 200 kts 282°
2026-05-05 16:29 30.57153 -99.88009 6738 ft 200 kts 287°
2026-05-05 16:29 30.57636 -99.89548 7181 ft 200 kts 289°
2026-05-05 16:30 30.58149 -99.91029 7581 ft 202 kts 291°
2026-05-05 16:30 30.58798 -99.92530 7789 ft 211 kts 297°
2026-05-05 16:30 30.59539 -99.93965 7872 ft 207 kts 299°
2026-05-05 16:30 30.60283 -99.95389 7928 ft 199 kts 297°
2026-05-05 16:31 30.60936 -99.96786 7945 ft 199 kts 295°
2026-05-05 16:31 30.61577 -99.98217 7958 ft 202 kts 295°
2026-05-05 16:31 30.62261 -99.99650 7963 ft 204 kts 297°
2026-05-05 16:31 30.62979 -100.01104 7957 ft 206 kts 297°
2026-05-05 16:32 30.63679 -100.02560 7956 ft 208 kts 296°
2026-05-05 16:32 30.64374 -100.04047 7952 ft 208 kts 296°
2026-05-05 16:32 30.65068 -100.05517 7947 ft 209 kts 296°
2026-05-05 16:32 30.65778 -100.06994 7943 ft 208 kts 296°
2026-05-05 16:33 30.66477 -100.08454 7943 ft 208 kts 296°
2026-05-05 16:33 30.67175 -100.09929 7937 ft 207 kts 296°
2026-05-05 16:33 30.67864 -100.11385 7934 ft 208 kts 296°
2026-05-05 16:33 30.68570 -100.12866 7927 ft 208 kts 296°
2026-05-05 16:34 30.69266 -100.14325 7925 ft 207 kts 296°
2026-05-05 16:34 30.69965 -100.15799 7924 ft 207 kts 296°
2026-05-05 16:34 30.70552 -100.17038 7924 ft 206 kts 296°
2026-05-05 16:34 30.71243 -100.18498 7921 ft 202 kts 296°
2026-05-05 16:35 30.71913 -100.19897 7926 ft 194 kts 296°
2026-05-05 16:35 30.72552 -100.21241 7922 ft 188 kts 296°
2026-05-05 16:35 30.73172 -100.22557 7925 ft 185 kts 295°
2026-05-05 16:35 30.73788 -100.23866 7926 ft 183 kts 296°
2026-05-05 16:36 30.74404 -100.25167 7929 ft 185 kts 296°
2026-05-05 16:36 30.75023 -100.26465 7925 ft 186 kts 295°
2026-05-05 16:36 30.75649 -100.27785 7929 ft 187 kts 295°
2026-05-05 16:36 30.76282 -100.29122 7927 ft 188 kts 296°
2026-05-05 16:37 30.76910 -100.30452 7932 ft 188 kts 295°
2026-05-05 16:37 30.77536 -100.31776 7935 ft 188 kts 296°
2026-05-05 16:37 30.78168 -100.33109 7941 ft 188 kts 296°
2026-05-05 16:37 30.78801 -100.34445 7939 ft 189 kts 296°
2026-05-05 16:38 30.79441 -100.35800 8074 ft 191 kts 296°
2026-05-05 16:38 30.80092 -100.37195 8487 ft 202 kts 295°
2026-05-05 16:38 30.80785 -100.38678 8926 ft 215 kts 296°
2026-05-05 16:38 30.81534 -100.40256 9360 ft 229 kts 296°
2026-05-05 16:39 30.82332 -100.41932 9787 ft 241 kts 296°
2026-05-05 16:39 30.83155 -100.43671 10181 ft 251 kts 296°
2026-05-05 16:39 30.83995 -100.45466 10573 ft 257 kts 296°
2026-05-05 16:39 30.84863 -100.47312 10969 ft 259 kts 296°
2026-05-05 16:40 30.85730 -100.49142 11373 ft 261 kts 296°
2026-05-05 16:40 30.86611 -100.51002 11787 ft 261 kts 296°
2026-05-05 16:40 30.87478 -100.52858 12197 ft 261 kts 295°
2026-05-05 16:40 30.88350 -100.54726 12621 ft 261 kts 296°
2026-05-05 16:41 30.89218 -100.56561 13053 ft 261 kts 296°
2026-05-05 16:41 30.90097 -100.58417 13483 ft 260 kts 296°
2026-05-05 16:41 30.90924 -100.60180 13875 ft 244 kts 295°
2026-05-05 16:41 30.91729 -100.61909 14265 ft 238 kts 295°
2026-05-05 16:42 30.92514 -100.63591 14592 ft 241 kts 295°
2026-05-05 16:42 30.93335 -100.65335 14756 ft 247 kts 295°
2026-05-05 16:42 30.94137 -100.67029 14830 ft 227 kts 295°
2026-05-05 16:42 30.94867 -100.68582 14863 ft 214 kts 295°
2026-05-05 16:43 30.95561 -100.70087 14885 ft 209 kts 294°
2026-05-05 16:43 30.96020 -100.71081 14894 ft 208 kts 295°
2026-05-05 16:43 30.96717 -100.72565 14904 ft 207 kts 295°
2026-05-05 16:43 30.97403 -100.74017 14909 ft 206 kts 295°
2026-05-05 16:44 30.98092 -100.75489 14908 ft 206 kts 295°
2026-05-05 16:44 30.98775 -100.76962 14908 ft 206 kts 295°
2026-05-05 16:44 30.99453 -100.78418 14909 ft 206 kts 295°
2026-05-05 16:44 31.00136 -100.79875 14909 ft 206 kts 295°
2026-05-05 16:45 31.00826 -100.81351 14908 ft 206 kts 295°
2026-05-05 16:45 31.01513 -100.82826 14906 ft 206 kts 295°
2026-05-05 16:45 31.02189 -100.84280 14908 ft 206 kts 295°
2026-05-05 16:45 31.02879 -100.85758 14909 ft 206 kts 295°
2026-05-05 16:46 31.03556 -100.87208 14905 ft 206 kts 295°
2026-05-05 16:46 31.04245 -100.88688 14905 ft 206 kts 295°